| time (UTC) | temp F | wind direction | speed knots | gust knots | rain 1hr in | rain 24hr in | rain mn in | humidity % | barometer mb |
| 20260504081704 | 60 | 352 | 7.0 | 9.6 | 0.00 | 0.00 | 0.00 | 69 | 1009.5 |
| 20260504080204 | 60 | 16 | 7.0 | 8.7 | 0.00 | 0.00 | 0.00 | 68 | 1009.2 |
| 20260504070204 | 62 | 1 | 4.3 | 6.1 | 0.00 | 0.00 | 0.00 | 62 | 1008.5 |
| 20260504060203 | 65 | 2 | 5.2 | 8.7 | 0.00 | 0.00 | 0.00 | 56 | 1008.2 |
| 20260504050204 | 67 | 341 | 7.0 | 8.7 | 0.00 | 0.00 | 0.00 | 52 | 1008.2 |
| 20260504044704 | 67 | 330 | 4.3 | 7.0 | 0.00 | 0.00 | 0.00 | 52 | 1008.2 |
| 20260504043203 | 67 | 357 | 6.1 | 8.7 | 0.00 | 0.00 | 0.00 | 52 | 1008.2 |
| 20260504041704 | 67 | 54 | 8.7 | 13.0 | 0.00 | 0.00 | 0.00 | 52 | 1008.5 |
| 20260504040204 | 67 | 335 | 7.8 | 9.6 | 0.00 | 0.00 | 0.00 | 51 | 1008.2 |
| 20260504034704 | 67 | 298 | 7.0 | 8.7 | 0.00 | 0.00 | 0.00 | 51 | 1008.5 |
| 20260504033204 | 67 | 300 | 6.1 | 8.7 | 0.00 | 0.00 | 0.00 | 51 | 1008.8 |
| 20260504031704 | 67 | 41 | 7.0 | 8.7 | 0.00 | 0.00 | 0.00 | 52 | 1008.8 |
| 20260504030204 | 66 | 346 | 8.7 | 13.0 | 0.00 | 0.00 | 0.00 | 52 | 1009.2 |
| 20260504024704 | 67 | 338 | 5.2 | 7.0 | 0.00 | 0.00 | 0.00 | 53 | 1009.5 |
| 20260504023203 | 67 | 354 | 6.1 | 9.6 | 0.00 | 0.00 | 0.00 | 53 | 1009.2 |
| 20260504021704 | 64 | 321 | 9.6 | 13.9 | 0.00 | 0.00 | 0.00 | 57 | 1009.5 |
| 20260504020204 | 67 | 347 | 5.2 | 7.0 | 0.00 | 0.00 | 0.00 | 56 | 1009.9 |
| 20260504014704 | 66 | 0 | 7.8 | 10.4 | 0.00 | 0.00 | 0.00 | 58 | 1009.9 |
| 20260504013204 | 66 | 355 | 10.4 | 13.0 | 0.00 | 0.00 | 0.00 | 56 | 1009.9 |
| 20260504011704 | 66 | 59 | 8.7 | 13.0 | 0.00 | 0.00 | 0.00 | 58 | 1009.9 |
| 20260504010204 | 65 | 336 | 3.5 | 7.0 | 0.00 | 0.00 | 0.00 | 60 | 1010.2 |
| 20260504004704 | 63 | 42 | 2.6 | 3.5 | 0.00 | 0.00 | 0.00 | 63 | 1010.2 |
| 20260504003204 | 65 | 12 | 6.1 | 7.8 | 0.00 | 0.00 | 0.00 | 61 | 1010.5 |
| 20260504001704 | 65 | 336 | 7.0 | 9.6 | 0.00 | 0.00 | 0.00 | 61 | 1010.5 |
| 20260504000204 | 64 | 342 | 4.3 | 6.1 | 0.00 | 0.00 | 0.00 | 62 | 1010.2 |
| 20260503234704 | 64 | 294 | 4.3 | 7.0 | 0.00 | 0.00 | 0.00 | 62 | 1010.5 |
| 20260503233204 | 63 | 354 | 6.1 | 7.8 | 0.00 | 0.00 | 0.00 | 62 | 1010.5 |
| 20260503231703 | 62 | 342 | 4.3 | 6.1 | 0.00 | 0.00 | 0.00 | 66 | 1010.5 |
| 20260503230203 | 61 | 7 | 2.6 | 5.2 | 0.00 | 0.00 | 0.00 | 67 | 1010.5 |
| 20260503224703 | 61 | 17 | 3.5 | 7.8 | 0.00 | 0.00 | 0.00 | 68 | 1010.5 |
| 20260503223203 | 60 | 346 | 1.7 | 2.6 | 0.00 | 0.00 | 0.00 | 69 | 1010.9 |
| 20260503221703 | 60 | 306 | 3.5 | 5.2 | 0.00 | 0.00 | 0.00 | 69 | 1010.9 |
| 20260503220203 | 59 | 1 | 3.5 | 5.2 | 0.00 | 0.00 | 0.00 | 70 | 1010.9 |
| 20260503214703 | 58 | 333 | 5.2 | 7.0 | 0.00 | 0.00 | 0.00 | 70 | 1010.9 |
| 20260503213203 | 58 | 6 | 2.6 | 3.5 | 0.00 | 0.00 | 0.00 | 71 | 1010.5 |
| 20260503211704 | 58 | 337 | 5.2 | 7.0 | 0.00 | 0.00 | 0.00 | 71 | 1010.5 |
| 20260503210204 | 58 | 358 | 1.7 | 1.7 | 0.00 | 0.00 | 0.00 | 71 | 1010.5 |
| 20260503204704 | 57 | 355 | 3.5 | 3.5 | 0.00 | 0.00 | 0.00 | 73 | 1010.5 |
| 20260503203203 | 56 | 319 | 2.6 | 3.5 | 0.00 | 0.00 | 0.00 | 74 | 1010.2 |
| 20260503201704 | 56 | 338 | 0.9 | 1.7 | 0.00 | 0.00 | 0.00 | 74 | 1010.2 |
| 20260503200204 | 57 | 352 | 1.7 | 2.6 | 0.00 | 0.00 | 0.00 | 73 | 1010.5 |
| 20260503194704 | 57 | 346 | 0.9 | 1.7 | 0.00 | 0.00 | 0.00 | 73 | 1010.2 |
| 20260503193204 | 56 | 344 | 2.6 | 3.5 | 0.00 | 0.00 | 0.00 | 74 | 1010.5 |
| 20260503191703 | 56 | 354 | 1.7 | 1.7 | 0.00 | 0.00 | 0.00 | 74 | 1010.9 |
| 20260503190203 | 57 | 343 | 3.5 | 5.2 | 0.00 | 0.00 | 0.00 | 74 | 1010.9 |
| 20260503184704 | 57 | 34 | 3.5 | 5.2 | 0.00 | 0.00 | 0.00 | 75 | 1010.9 |
| 20260503183204 | 57 | 340 | 0.0 | 0.0 | 0.00 | 0.00 | 0.00 | 76 | 1010.9 |
| 20260503181703 | 56 | 353 | 4.3 | 6.1 | 0.00 | 0.00 | 0.00 | 78 | 1010.9 |
| 20260503180203 | 56 | 352 | 2.6 | 2.6 | 0.00 | 0.00 | 0.00 | 79 | 1011.2 |
| 20260503174703 | 56 | 344 | 2.6 | 2.6 | 0.00 | 0.00 | 0.00 | 79 | 1011.2 |
| 20260503173203 | 56 | 359 | 0.9 | 1.7 | 0.00 | 0.00 | 0.00 | 79 | 1011.5 |
| 20260503171704 | 56 | 327 | 2.6 | 3.5 | 0.00 | 0.00 | 0.00 | 80 | 1011.2 |
| 20260503170204 | 56 | 0 | 2.6 | 2.6 | 0.00 | 0.00 | 0.00 | 79 | 1011.5 |
| 20260503160203 | 56 | 334 | 1.7 | 1.7 | 0.00 | 0.00 | 0.00 | 80 | 1011.5 |
| 20260503150204 | 56 | 11 | 1.7 | 2.6 | 0.00 | 0.00 | 0.00 | 80 | 1011.5 |
| 20260503140204 | 58 | 53 | 1.7 | 1.7 | 0.00 | 0.00 | 0.00 | 79 | 1011.9 |
| 20260503130203 | 58 | 329 | 2.6 | 2.6 | 0.00 | 0.00 | 0.50 | 79 | 1011.9 |
| 20260503120204 | 59 | 352 | 1.7 | 2.6 | 0.00 | 0.00 | 0.50 | 76 | 1012.2 |
| 20260503110204 | 58 | 348 | 0.9 | 0.9 | 0.00 | 0.00 | 0.50 | 77 | 1012.2 |
| 20260503100204 | 58 | 347 | 1.7 | 1.7 | 0.00 | 0.00 | 0.50 | 78 | 1012.2 |